Time,TemperatureF,DewpointF,PressureIn,WindDirection,WindDirectionDegrees,WindSpeedMPH,WindSpeedGustMPH,Humidity,HourlyPrecipIn,Conditions,Clouds,dailyrainin,SolarRadiationWatts/m^2,SoftwareType,DateUTC
2013-03-07 00:02:00,60.0,60.0,-100.00,NNE,16,0.0,0.0,99,0.00,,,0.04,0.000000,,2013-03-07 10:02:00,
2013-03-07 00:12:00,60.0,60.0,-100.00,NNE,16,0.0,0.0,99,0.00,,,0.04,0.000000,,2013-03-07 10:12:00,
2013-03-07 00:22:00,60.0,60.0,-100.00,NNE,16,0.0,0.0,99,0.00,,,0.04,0.000000,,2013-03-07 10:22:00,
2013-03-07 00:32:00,60.0,60.0,-100.00,NNE,16,0.0,0.0,99,0.00,,,0.04,0.000000,,2013-03-07 10:32:00,
2013-03-07 00:53:00,60.0,59.0,-100.00,NNW,333,0.0,0.0,98,0.00,,,0.04,0.000000,,2013-03-07 10:53:00,
2013-03-07 01:02:00,60.0,59.0,-100.00,NNW,333,0.0,0.0,98,0.00,,,0.04,0.000000,,2013-03-07 11:02:00,
2013-03-07 01:11:00,60.0,59.0,-100.00,NNW,333,0.0,0.0,98,0.00,,,0.04,0.000000,,2013-03-07 11:11:00,
2013-03-07 01:22:00,60.0,59.0,-100.00,NNW,333,0.0,0.0,98,0.00,,,0.04,0.000000,,2013-03-07 11:22:00,
2013-03-07 01:32:00,60.0,59.0,-100.00,NNW,333,0.0,0.0,98,0.00,,,0.04,0.000000,,2013-03-07 11:32:00,
2013-03-07 02:02:00,60.0,59.0,-100.00,North,356,0.0,0.0,98,0.00,,,0.04,0.000000,,2013-03-07 12:02:00,
2013-03-07 02:12:00,60.0,59.0,-100.00,North,356,0.0,0.0,98,0.00,,,0.04,0.000000,,2013-03-07 12:12:00,
2013-03-07 02:22:00,60.0,59.0,-100.00,North,356,0.0,0.0,98,0.00,,,0.04,0.000000,,2013-03-07 12:22:00,
2013-03-07 02:32:00,60.0,59.0,-100.00,North,356,0.0,0.0,98,0.00,,,0.04,0.000000,,2013-03-07 12:32:00,
2013-03-07 03:02:00,60.0,60.0,-100.00,NE,44,0.0,0.0,99,0.00,,,0.04,0.000000,,2013-03-07 13:02:00,
2013-03-07 03:12:00,60.0,60.0,-100.00,NE,44,0.0,0.0,99,0.00,,,0.04,0.000000,,2013-03-07 13:12:00,
2013-03-07 03:22:00,60.0,60.0,-100.00,NE,44,0.0,0.0,99,0.00,,,0.04,0.000000,,2013-03-07 13:22:00,
2013-03-07 03:32:00,60.0,60.0,-100.00,NE,44,0.0,0.0,99,0.00,,,0.04,0.000000,,2013-03-07 13:32:00,
2013-03-07 04:01:00,60.0,60.0,-100.00,NNE,19,0.0,0.0,99,0.00,,,0.04,0.000000,,2013-03-07 14:01:00,
2013-03-07 04:11:00,60.0,60.0,-100.00,NNE,19,0.0,0.0,99,0.00,,,0.04,0.000000,,2013-03-07 14:11:00,
2013-03-07 04:22:00,60.0,60.0,-100.00,NNE,19,0.0,0.0,99,0.00,,,0.04,0.000000,,2013-03-07 14:22:00,
2013-03-07 04:32:00,60.0,60.0,-100.00,NNE,19,0.0,0.0,99,0.00,,,0.04,0.000000,,2013-03-07 14:32:00,
2013-03-07 04:54:00,60.0,60.0,-100.00,NNE,19,0.0,0.0,99,0.00,,,0.04,0.000000,,2013-03-07 14:54:00,
2013-03-07 05:02:00,60.0,60.0,-100.00,NNE,19,0.0,0.0,99,0.00,,,0.04,0.000000,,2013-03-07 15:02:00,
2013-03-07 05:12:00,60.0,60.0,-100.00,NNE,19,0.0,0.0,99,0.00,,,0.04,0.000000,,2013-03-07 15:12:00,
2013-03-07 05:22:00,60.0,60.0,-100.00,NNE,19,0.0,0.0,99,0.00,,,0.04,0.000000,,2013-03-07 15:22:00,
2013-03-07 05:32:00,60.0,60.0,-100.00,NNE,19,0.0,0.0,99,0.00,,,0.04,0.000000,,2013-03-07 15:32:00,
2013-03-07 06:02:00,60.0,60.0,-100.00,NNE,26,0.0,0.0,99,0.00,,,0.04,0.000000,,2013-03-07 16:02:00,
2013-03-07 06:12:00,60.0,60.0,-100.00,NNE,26,0.0,0.0,99,0.00,,,0.04,0.000000,,2013-03-07 16:12:00,
2013-03-07 06:22:00,60.0,60.0,-100.00,NNE,26,0.0,0.0,99,0.00,,,0.04,0.000000,,2013-03-07 16:22:00,
2013-03-07 06:32:00,60.0,60.0,-100.00,NNE,26,0.0,0.0,99,0.00,,,0.04,0.000000,,2013-03-07 16:32:00,
2013-03-07 06:53:00,60.0,60.0,-100.00,NNE,14,0.0,0.0,99,0.00,,,0.03,0.000000,,2013-03-07 16:53:00,
2013-03-07 07:02:00,60.0,60.0,-100.00,NNE,14,0.0,0.0,99,0.00,,,0.03,0.000000,,2013-03-07 17:02:00,
2013-03-07 07:12:00,60.0,60.0,-100.00,NNE,14,0.0,0.0,99,0.00,,,0.03,0.000000,,2013-03-07 17:12:00,
2013-03-07 07:22:00,60.0,60.0,-100.00,NNE,14,0.0,0.0,99,0.00,,,0.03,0.000000,,2013-03-07 17:22:00,
2013-03-07 07:32:00,60.0,60.0,-100.00,NNE,14,0.0,0.0,99,0.00,,,0.03,0.000000,,2013-03-07 17:32:00,
2013-03-07 08:03:00,60.0,60.0,-100.00,SE,141,0.0,0.0,99,0.01,,,0.04,0.000000,,2013-03-07 18:03:00,
2013-03-07 08:11:00,60.0,60.0,-100.00,SE,141,0.0,0.0,99,0.01,,,0.04,0.000000,,2013-03-07 18:11:00,
2013-03-07 08:21:00,60.0,60.0,-100.00,SE,141,0.0,0.0,99,0.01,,,0.04,0.000000,,2013-03-07 18:21:00,
2013-03-07 08:31:00,60.0,60.0,-100.00,SE,141,0.0,0.0,99,0.01,,,0.04,0.000000,,2013-03-07 18:31:00,
2013-03-07 08:52:00,58.0,57.0,-100.00,South,189,0.0,0.0,98,0.08,,,0.12,0.000000,,2013-03-07 18:52:00,
2013-03-07 09:02:00,58.0,57.0,-100.00,South,189,0.0,0.0,98,0.08,,,0.12,0.000000,,2013-03-07 19:02:00,
2013-03-07 09:12:00,58.0,57.0,-100.00,South,189,0.0,0.0,98,0.08,,,0.12,0.000000,,2013-03-07 19:12:00,
2013-03-07 09:22:00,58.0,57.0,-100.00,South,189,0.0,0.0,98,0.08,,,0.12,0.000000,,2013-03-07 19:22:00,
2013-03-07 09:33:00,58.0,57.0,-100.00,South,189,0.0,0.0,98,0.08,,,0.12,0.000000,,2013-03-07 19:33:00,
2013-03-07 09:53:00,62.0,60.0,-100.00,SSW,201,1.0,1.0,94,0.00,,,0.12,0.000000,,2013-03-07 19:53:00,
2013-03-07 10:01:00,62.0,60.0,-100.00,SSW,201,1.0,1.0,94,0.00,,,0.12,0.000000,,2013-03-07 20:01:00,
2013-03-07 10:12:00,62.0,60.0,-100.00,SSW,201,1.0,1.0,94,0.00,,,0.12,0.000000,,2013-03-07 20:12:00,
2013-03-07 10:21:00,62.0,60.0,-100.00,SSW,201,1.0,1.0,94,0.00,,,0.12,0.000000,,2013-03-07 20:21:00,
2013-03-07 10:31:00,62.0,60.0,-100.00,SSW,201,1.0,1.0,94,0.00,,,0.12,0.000000,,2013-03-07 20:31:00,
2013-03-07 11:02:00,64.0,61.0,-100.00,NW,325,0.0,1.0,90,0.00,,,0.12,0.000000,,2013-03-07 21:02:00,
2013-03-07 11:12:00,64.0,61.0,-100.00,NW,325,0.0,1.0,90,0.00,,,0.12,0.000000,,2013-03-07 21:12:00,
2013-03-07 11:22:00,64.0,61.0,-100.00,NW,325,0.0,1.0,90,0.00,,,0.12,0.000000,,2013-03-07 21:22:00,
2013-03-07 11:32:00,64.0,61.0,-100.00,NW,325,0.0,1.0,90,0.00,,,0.12,0.000000,,2013-03-07 21:32:00,
2013-03-07 12:01:00,64.0,58.0,-100.00,WNW,290,0.0,2.0,82,0.00,,,-99.99,0.000000,,2013-03-07 22:01:00,
2013-03-07 12:11:00,64.0,58.0,-100.00,WNW,290,0.0,2.0,82,0.00,,,-99.99,0.000000,,2013-03-07 22:11:00,
2013-03-07 12:22:00,64.0,58.0,-100.00,WNW,290,0.0,2.0,82,0.00,,,-99.99,0.000000,,2013-03-07 22:22:00,
2013-03-07 12:32:00,64.0,58.0,-100.00,WNW,290,0.0,2.0,82,0.00,,,-99.99,0.000000,,2013-03-07 22:32:00,
2013-03-07 12:54:00,66.0,62.0,-100.00,SSE,147,0.0,0.0,87,0.00,,,0.12,0.000000,,2013-03-07 22:54:00,
2013-03-07 13:02:00,66.0,62.0,-100.00,SSE,147,0.0,0.0,87,0.00,,,0.12,0.000000,,2013-03-07 23:02:00,
2013-03-07 13:12:00,66.0,62.0,-100.00,SSE,147,0.0,0.0,87,0.00,,,0.12,0.000000,,2013-03-07 23:12:00,
2013-03-07 13:21:00,66.0,62.0,-100.00,SSE,147,0.0,0.0,87,0.00,,,0.12,0.000000,,2013-03-07 23:21:00,
2013-03-07 13:32:00,66.0,62.0,-100.00,SSE,147,0.0,0.0,87,0.00,,,0.12,0.000000,,2013-03-07 23:32:00,
2013-03-07 14:03:00,67.0,61.0,-100.00,SSE,148,0.0,0.0,82,0.00,,,0.12,0.000000,,2013-03-08 00:03:00,
2013-03-07 14:12:00,67.0,61.0,-100.00,SSE,148,0.0,0.0,82,0.00,,,0.12,0.000000,,2013-03-08 00:12:00,
2013-03-07 14:22:00,67.0,61.0,-100.00,SSE,148,0.0,0.0,82,0.00,,,0.12,0.000000,,2013-03-08 00:22:00,
2013-03-07 14:32:00,67.0,61.0,-100.00,SSE,148,0.0,0.0,82,0.00,,,0.12,0.000000,,2013-03-08 00:32:00,
2013-03-07 15:01:00,72.0,63.0,-100.00,SSW,203,0.0,0.0,73,0.00,,,0.12,0.000000,,2013-03-08 01:01:00,
2013-03-07 15:11:00,72.0,63.0,-100.00,SSW,203,0.0,0.0,73,0.00,,,0.12,0.000000,,2013-03-08 01:11:00,
2013-03-07 15:21:00,72.0,63.0,-100.00,SSW,203,0.0,0.0,73,0.00,,,0.12,0.000000,,2013-03-08 01:21:00,
2013-03-07 15:32:00,72.0,63.0,-100.00,SSW,203,0.0,0.0,73,0.00,,,0.12,0.000000,,2013-03-08 01:32:00,
2013-03-07 16:01:00,63.0,58.0,-100.00,NE,53,0.0,0.0,83,0.00,,,0.12,0.000000,,2013-03-08 02:01:00,
2013-03-07 16:11:00,63.0,58.0,-100.00,NE,53,0.0,0.0,83,0.00,,,0.12,0.000000,,2013-03-08 02:11:00,
2013-03-07 16:21:00,63.0,58.0,-100.00,NE,53,0.0,0.0,83,0.00,,,0.12,0.000000,,2013-03-08 02:21:00,
2013-03-07 16:31:00,63.0,58.0,-100.00,NE,53,0.0,0.0,83,0.00,,,0.12,0.000000,,2013-03-08 02:31:00,
2013-03-07 17:02:00,63.0,62.0,-100.00,ESE,107,0.0,0.0,97,0.00,,,0.12,0.000000,,2013-03-08 03:02:00,
2013-03-07 17:11:00,63.0,62.0,-100.00,ESE,107,0.0,0.0,97,0.00,,,0.12,0.000000,,2013-03-08 03:11:00,
2013-03-07 17:22:00,63.0,62.0,-100.00,ESE,107,0.0,0.0,97,0.00,,,0.12,0.000000,,2013-03-08 03:22:00,
2013-03-07 17:32:00,63.0,62.0,-100.00,ESE,107,0.0,0.0,97,0.00,,,0.12,0.000000,,2013-03-08 03:32:00,
2013-03-07 17:52:00,62.0,60.0,-100.00,NE,35,0.0,0.0,93,0.00,,,0.12,0.000000,,2013-03-08 03:52:00,
2013-03-07 18:01:00,62.0,60.0,-100.00,NE,35,0.0,0.0,93,0.00,,,0.12,0.000000,,2013-03-08 04:01:00,
2013-03-07 18:11:00,62.0,60.0,-100.00,NE,35,0.0,0.0,93,0.00,,,0.12,0.000000,,2013-03-08 04:11:00,
2013-03-07 18:21:00,62.0,60.0,-100.00,NE,35,0.0,0.0,93,0.00,,,0.12,0.000000,,2013-03-08 04:21:00,
2013-03-07 18:31:00,62.0,60.0,-100.00,NE,35,0.0,0.0,93,0.00,,,0.12,0.000000,,2013-03-08 04:31:00,
2013-03-07 19:01:00,62.0,61.0,-100.00,NNE,25,0.0,0.0,96,0.00,,,0.12,0.000000,,2013-03-08 05:01:00,
2013-03-07 19:12:00,62.0,61.0,-100.00,NNE,25,0.0,0.0,96,0.00,,,0.12,0.000000,,2013-03-08 05:12:00,
2013-03-07 19:22:00,62.0,61.0,-100.00,NNE,25,0.0,0.0,96,0.00,,,0.12,0.000000,,2013-03-08 05:22:00,
2013-03-07 19:32:00,62.0,61.0,-100.00,NNE,25,0.0,0.0,96,0.00,,,0.12,0.000000,,2013-03-08 05:32:00,
2013-03-07 20:01:00,61.0,60.0,-100.00,NNE,25,0.0,0.0,95,0.00,,,0.12,0.000000,,2013-03-08 06:01:00,
2013-03-07 20:11:00,61.0,60.0,-100.00,NNE,25,0.0,0.0,95,0.00,,,0.12,0.000000,,2013-03-08 06:11:00,
2013-03-07 20:21:00,61.0,60.0,-100.00,NNE,25,0.0,0.0,95,0.00,,,0.12,0.000000,,2013-03-08 06:21:00,
2013-03-07 20:31:00,61.0,60.0,-100.00,NNE,25,0.0,0.0,95,0.00,,,0.12,0.000000,,2013-03-08 06:31:00,
2013-03-07 20:52:00,61.0,60.0,-100.00,NNE,31,0.0,0.0,96,0.00,,,0.10,0.000000,,2013-03-08 06:52:00,
2013-03-07 21:01:00,61.0,60.0,-100.00,NNE,31,0.0,0.0,96,0.00,,,0.10,0.000000,,2013-03-08 07:01:00,
2013-03-07 21:11:00,61.0,60.0,-100.00,NNE,31,0.0,0.0,96,0.00,,,0.10,0.000000,,2013-03-08 07:11:00,
2013-03-07 21:21:00,61.0,60.0,-100.00,NNE,31,0.0,0.0,96,0.00,,,0.10,0.000000,,2013-03-08 07:21:00,
2013-03-07 21:31:00,61.0,60.0,-100.00,NNE,31,0.0,0.0,96,0.00,,,0.10,0.000000,,2013-03-08 07:31:00,
2013-03-07 21:52:00,60.0,59.0,-100.00,NE,55,0.0,0.0,97,0.00,,,0.10,0.000000,,2013-03-08 07:52:00,
2013-03-07 22:01:00,60.0,59.0,-100.00,NE,55,0.0,0.0,97,0.00,,,0.10,0.000000,,2013-03-08 08:01:00,
2013-03-07 22:11:00,60.0,59.0,-100.00,NE,55,0.0,0.0,97,0.00,,,0.10,0.000000,,2013-03-08 08:11:00,
2013-03-07 22:21:00,60.0,59.0,-100.00,NE,55,0.0,0.0,97,0.00,,,0.10,0.000000,,2013-03-08 08:21:00,
2013-03-07 22:31:00,60.0,59.0,-100.00,NE,55,0.0,0.0,97,0.00,,,0.10,0.000000,,2013-03-08 08:31:00,
2013-03-07 22:52:00,59.0,58.0,-100.00,NE,52,0.0,0.0,98,0.00,,,0.09,0.000000,,2013-03-08 08:52:00,
2013-03-07 23:02:00,59.0,58.0,-100.00,NE,52,0.0,0.0,98,0.00,,,0.09,0.000000,,2013-03-08 09:02:00,
2013-03-07 23:11:00,59.0,58.0,-100.00,NE,52,0.0,0.0,98,0.00,,,0.09,0.000000,,2013-03-08 09:11:00,
2013-03-07 23:21:00,59.0,58.0,-100.00,NE,52,0.0,0.0,98,0.00,,,0.09,0.000000,,2013-03-08 09:21:00,
2013-03-07 23:31:00,59.0,58.0,-100.00,NE,52,0.0,0.0,98,0.00,,,0.09,0.000000,,2013-03-08 09:31:00,